Other Public Products
Issued by NWS Grand Forks, ND

Home | Current Version | Previous Version | Text Only | Print | Product List | Glossary Off
Versions: 1 2 3 4 5 6 7 8 9 10 11 12 13 14 15 16 17 18 19 20 21 22 23 24 25 26 27 28 29 30 31 32 33 34 35 36 37 38 39 40 41 42 43 44 45 46 47 48 49 50

000
FPUS83 KFGF 250531
OPUFGF
PRAIRIE TO PINES WEATHER ROUNDUP
NATIONAL WEATHER SERVICE EASTERN NORTH DAKOTA/GRAND FORKS ND
1200 AM CDT SAT OCT 25 2014

 **SATELLITE DATA USED TO AUGMENT SKY COVER AT AUTOMATED STATIONS**
 *****  WEATHER ACROSS EASTERN NORTH DAKOTA  *****

CITY           SKY/WX    TMP DP  RH WIND       PRES   REMARKS
GRAND FORKS    CLEAR     51  35  54 W8        29.90R
GRAND FORKS AF CLEAR     51  35  54 NW13      29.91S
GRAND CITY NWS   N/A     48 N/A N/A NW9         N/A
BUXTON           N/A     43  35  72 W8          N/A
DEVILS LAKE    CLEAR     46  30  53 W13       29.94S
FARGO          CLEAR     48  32  53 W10       29.95R
WAHPETON ARPT  MOCLDY    54  32  43 NW10      29.97R
$$

 *****  WEATHER ACROSS CENTRAL AND WESTERN NORTH DAKOTA  *****

CITY           SKY/WX    TMP DP  RH WIND       PRES   REMARKS
JAMESTOWN      CLEAR     47  33  58 W8        29.99R
BISMARCK       PTCLDY    47  31  53 NW8       30.05S
MINOT          CLEAR     45  29  53 W10       30.01R
MINOT AFB      CLEAR     42  31  64 W9        30.00R
GARRISON         N/A     44  30  57 NW10      30.02R
WILLISTON      PTCLDY    42  26  53 W10       30.06R
DICKINSON      CLOUDY    45  32  60 W8        30.08R
HETTINGER      CLOUDY    48  33  56 W7        30.11R
$$

 *****  OTHER OBSERVATIONS NORTHEAST NORTH DAKOTA  *****

CITY           SKY/WX    TMP DP  RH WIND       PRES   REMARKS
WALHALLA         N/A     50  32  50 NW15G22   29.90R
LANGDON        FAIR      45  30  57 W16       29.92R
CAVALIER       FAIR      50  32  50 W15       29.89R
GRAFTON        FAIR      50  34  53 W14G23    29.89S
CANDO          FAIR      43  32  65 W12       29.96R
FORT TOTTEN    NOT AVBL
ROLLA          FAIR      50  30  46 NW16G28   29.95R
RUGBY          FAIR      39  32  75 W10       29.99R
 ***** THE ABOVE OBSERVATIONS ARE NON NWS ARE NOT QUALITY
        CONTROLLED AND MAY MIS-REPORT RAIN FOR SNOW...
$$

 *****  OTHER OBSERVATIONS SOUTHEAST NORTH DAKOTA *****

CITY           SKY/WX    TMP DP  RH WIND       PRES   REMARKS
COOPERSTOWN    NOT AVBL
VALLEY CITY    FAIR      46  34  61 W13       29.98S
OAKES            N/A     50  37  62 NW7       30.01R
GWINNER        MOCLDY    54  36  50 W13       30.01R
BUFFALO          N/A     45  27  50 W10         N/A
WYNDMERE         N/A     52  36  54 W7          N/A
 ***** THE ABOVE OBSERVATIONS ARE NON NWS ARE NOT QUALITY
       CONTROLLED AND MAY MIS-REPORT RAIN FOR SNOW...
$$

  *****  WEATHER ACROSS NORTHERN MINNESOTA  *****

CITY           SKY/WX    TMP DP  RH WIND       PRES   REMARKS
FLAG ISLAND    CLEAR     54  36  50 W25G32    29.74R
WARROAD        CLEAR     48  36  61 W15       29.80S
ROSEAU         CLEAR     52  36  54 W15       29.82R
HALLOCK        CLEAR     48  34  57 W13       29.87R
THF RVR FALLS  CLEAR     50  34  53 W12       29.89R
HALSTAD          N/A     45  28  52 W10         N/A
FOSSTON        CLEAR     48  34  57 W9        29.90S
BAUDETTE       CLEAR     54  33  45 W12G26    29.77R
WASKISH        CLEAR     52  41  66 W16       29.82R
CROOKSTON      CLEAR     48  36  61 NW12      29.91R
$$
  *****  WEATHER ACROSS CENTRAL AND WEST MINNESOTA  *****

CITY           SKY/WX    TMP DP  RH WIND       PRES   REMARKS
BEMIDJI        CLEAR     52  33  48 W12       29.87R
PARK RAPIDS    CLEAR     55  32  41 NW16      29.88R
WADENA         CLEAR     54  34  47 W7        29.92R
DETROIT LAKES  CLEAR     54  32  43 NW14      29.94R
MOORHEAD       PTCLDY    55  27  33 W13G18    29.96R
FERGUS FALLS   MOCLDY    55  28  35 NW12      29.96R
ELBOW LAKE     FAIR      53  37  52 W8        29.96R
MORRIS MN      PTCLDY    55  37  50 NW13      29.96R
STAPLES        CLEAR     54  32  43 W10       29.90S
WHEATON        MOCLDY    55  36  47 NW10      30.00R
$$
  *****  WEATHER ELSEWHERE ACROSS MINNESOTA  *****

CITY           SKY/WX    TMP DP  RH WIND       PRES   REMARKS
DULUTH         PTCLDY    59  36  42 W17       29.77R
INTRNTL FALLS  CLEAR     52  35  52 W8        29.74S
ELY            CLEAR     55  34  44 W8        29.73S
CLOQUET        PTCLDY    57  34  41 W10G18    29.80R
BRAINERD       CLEAR     57  35  43 W9        29.88R
HIBBING        PTCLDY    58  33  39 NW14G23   29.78R
ALEXANDRIA     MOCLDY    59  33  37 NW13      29.94R
SAINT CLOUD    CLEAR     61  40  45 NW10      29.89R
MINNEAPOLIS    PTCLDY    58  46  64 W9        29.88R
$$

  *****  WEATHER ACROSS SOUTH DAKOTA  *****

CITY           SKY/WX    TMP DP  RH WIND       PRES   REMARKS
SIOUX FALLS    CLEAR     54  41  61 CALM      30.01R
BROOKINGS      NOT AVBL
WATERTOWN      CLOUDY    55  42  61 NW6       30.01R
HURON          CLOUDY    56  39  53 N8        30.02R
SISSETON         N/A     57  35  43 N12       29.98R
ABERDEEN       MOCLDY    58  38  47 NW12      30.03R
MITCHELL       PTCLDY    56  38  50 NW3       30.01F
PIERRE         CLOUDY    57  36  45 N12       30.06R
MOBRIDGE       CLOUDY    56  38  50 NW6       30.06R
RAPID CITY     CLEAR     45  33  63 NW8       30.13R
$$

  *****  SOME WEATHER IN NEARBY STATES *****

CITY           SKY/WX    TMP DP  RH WIND       PRES   REMARKS
GLASGOW MT     PTCLDY    44  28  53 CALM      30.07R
GREAT FALLS MT CLOUDY    47  40  76 E6        30.07S
CHEYENNE WY    CLEAR     48  26  42 NW5       30.24S
SCOTTSBLUFF NE CLEAR     50  32  50 NE3       30.12R
OMAHA NE       CLEAR     52  51  97 NW5       30.01S
DES MOINES IA  FOG       55  53  93 CALM      29.97S VSB 3/4
DAVENPORT IA   FOG       53  52  96 W3        29.95S VSB 1/2
CHICAGO IL     MOCLDY    60  49  66 SW6       29.92F
EAU CLAIRE WI  FOG       48  47  96 SW6       29.84F VSB 1/4
LA CROSSE WI   MOCLDY    57  54  89 SW6       29.89S
$$

  *****  SOME NATIONAL WEATHER *****

CITY           SKY/WX    TMP DP  RH WIND       PRES   REMARKS
LA GUARDIA NY  PTCLDY    57  39  51 NW8       29.84R
RALEIGH NC     PTCLDY    48  44  86 S3        29.98F
ATLANTA GA     PTCLDY    54  44  69 NW8       30.03S
NEW ORLEANS LA CLEAR     59  52  77 N5        30.10S
OKLAHOMA CITY  CLEAR     65  60  84 S7        30.07S
ALBUQUERQUE NM CLEAR     56  37  49 E6        30.29R
SALT LAKE CITY CLEAR     58  31  35 SE10      30.09R
LOS ANGELES CA CLEAR     68  66  93 W7        29.99R
BOISE ID       PTCLDY    50  48  93 CALM      29.95F
SEATTLE WA     LGT RAIN  52  47  83 E8        29.83F
$$

*** WEATHER ACROSS MANITOBA...SASKATCHEWAN AND ONTARIO ***
                ***ONTARIO***

CITY           SKY/WX    TMP DP  RH WIND       PRES   REMARKS
GERALDTON      LGT RAIN  46  46 100 S6        29.48  FOG
THUNDER BAY    CLEAR     46  41  81 W9        29.57S
SIOUX LOOKOUT  PTCLDY    52  39  62 W10       29.59R
TORONTO        CLOUDY    52  45  76 SW2       29.90F
BIG TROUT LK   LGT RAIN  46  46 100 SW8       29.25F FOG
PICKLE LAKE    NOT AVBL
DRYDEN         CLEAR     52  34  50 W21G31    29.62S
KENORA         CLEAR     52  34  50 NW14G23   29.70R
$$
                *** MANITOBA***

CITY           SKY/WX    TMP DP  RH WIND       PRES   REMARKS
BRANDON        CLEAR     41  32  70 W13       29.91R
DAUPHIN        CLEAR     45  32  61 W16       29.84R
ISLAND LAKE    LGT RAIN  45  41  87 W18G31    29.47R
PILOT MOUND      N/A     48  32  53 W13G18      N/A
THE PAS        PTCLDY    41  32  70 W16G29    29.69R
THOMPSON       CLOUDY    37  36  93 W16       29.49R
WINNIPEG       CLEAR     43  34  70 W10       29.83R
LYNN LAKE      CLOUDY    34  30  86 W17G24    29.53R WCI  23
CHURCHILL      FOG       37  37 100 NE2       29.35F VSB 1/4
GILLAM         CLOUDY    43  41  93 NW9       29.38S
$$
                ***SASKATCHEWAN***

CITY           SKY/WX    TMP DP  RH WIND       PRES   REMARKS
ESTEVAN        CLEAR     39  30  70 W10       30.01R
KINDERSLEY     MOCLDY    34  27  75 S6        29.99S
LLOYDMINSTER   CLEAR     34  23  64 W12       29.93R
PRINCE ALBERT  PTCLDY    41  28  60 W10       29.87R
REGINA         CLEAR     34  30  86 W5        30.00R
YORKTON        CLEAR     43  28  56 W16       29.90R



USA.gov is the U.S. government's official web portal to all federal, state and local government web resources and services.